This demonstration page uses our WeatherBlox Daily Observations layout. Learn more.

Left ArrowRight Arrow

Hourly Observations for September 23, 2019

Temp ( °F °C ) Dew Point ( °F °C ) Humidity (%) Winds ( mph kmh ) Pressure ( in mb ) Visibility ( mi km ) Precip ( " mm )
12:53 am 00:53 Clear 63 17.2 58 14.4 84 84 Calm 30.11 1020 10 16 0.00 0.00
1:53 am 01:53 Clear 61 16.1 57 13.9 87 87 NNE 3 6 30.10 1019 10 16 0.00 0.00
2:53 am 02:53 Clear 60 15.6 57 13.9 90 90 Calm 30.09 1019 10 16 0.00 0.00
3:53 am 03:53 Clear 60 15.6 57 13.9 90 90 Calm 30.08 1019 10 16 0.00 0.00
4:53 am 04:53 Clear 59 15 56 13.3 90 90 Calm 30.08 1019 10 16 0.00 0.00
5:53 am 05:53 Clear 58 14.4 56 13.3 93 93 Calm 30.08 1019 10 16 0.00 0.00
6:53 am 06:53 Clear 60 15.6 56 13.3 86 86 Calm 30.10 1019 10 16 0.00 0.00
7:53 am 07:53 Sunny 58 14.4 56 13.3 93 93 Calm 30.11 1020 10 16 0.00 0.00
8:53 am 08:53 Sunny 64 17.8 59 15 84 84 Calm 30.12 1020 10 16 0.00 0.00
9:53 am 09:53 Sunny 71 21.7 58 14.4 63 63 Calm 30.12 1020 10 16 0.00 0.00
10:53 am 10:53 Sunny 78 25.6 59 15 52 52 VRB 3 6 30.11 1020 10 16 0.00 0.00
11:53 am 11:53 Sunny 83 28.3 56 13.3 40 40 Calm 30.10 1019 10 16 0.00 0.00
12:53 pm 12:53 Sunny 86 30 56 13.3 36 36 NW 9 15 30.08 1019 10 16 0.00 0.00
1:53 pm 13:53 Sunny 88 31.1 57 13.9 35 35 NNW 6 9 30.05 1018 10 16 0.00 0.00
2:53 pm 14:53 Sunny 88 31.1 57 13.9 35 35 N 6 9 30.02 1017 10 16 0.00 0.00
3:53 pm 15:53 Sunny 90 32.2 57 13.9 33 33 VRB 3 6 29.99 1016 10 16 0.00 0.00
4:53 pm 16:53 Sunny 90 32.2 58 14.4 34 34 NW 8 13 29.98 1015 10 16 0.00 0.00
5:53 pm 17:53 Sunny 90 32.2 58 14.4 34 34 NNW 5 7 29.97 1015 10 16 0.00 0.00
6:53 pm 18:53 Sunny 87 30.6 60 15.6 40 40 NW 3 6 29.97 1015 10 16 0.00 0.00
7:53 pm 19:53 Clear 82 27.8 61 16.1 49 49 Calm 29.97 1015 10 16 0.00 0.00
8:53 pm 20:53 Clear 77 25 62 16.7 60 60 Calm 29.96 1015 10 16 0.00 0.00
9:53 pm 21:53 Clear 74 23.3 63 17.2 69 69 Calm 29.97 1015 10 16 0.00 0.00
10:53 pm 22:53 Partly Cloudy 74 23.3 63 17.2 69 69 Calm 29.97 1015 10 16 0.00 0.00
11:53 pm 23:53 Cloudy 73 22.8 63 17.2 71 71 Calm 29.96 1015 10 16 0.00 0.00

Powered by AerisWeather